sat.trackr.live / text

‹ back to catalog

STARLINK-5827

NORAD 57066 · 2023-088U

PAYLOAD ACTIVE UNKNOWN

§ Identity

Operator
Country
US
Launch date
2023-06-22
Launch site
AFWTR
Launch vehicle
Mass (kg)
RCS (m²)

Purposes: comms

External: N2YO · Heavens-Above · Gunter

§ Orbital elements

Epoch: 2026-09-20T05:11:54.754080Z

Period
94.27 min
Inclination
43.0016°
Eccentricity
0.0001662
Mean motion
15.27565696 rev/d
Perigee alt
482.0 km
Apogee alt
484.2 km
Semi-major
6,861.2 km
B*
8.1189e-5
RAAN
91.9985°
Arg perigee
238.6774°
Mean anomaly
121.3915°
Rev number
17,910

§ Raw data

STARLINK-58271 57066U 23088U   26263.21660595  .00001972  00000+0  81189-4 0  99972 57066  43.0016  91.9985 0001662 238.6774 121.3915 15.27565696179105

JSON: /api/v1/satellites/57066 · /tle

For live sub-satellite position, see the globe view (requires WebGL).

§ Visibility from observer

Set your observer location to see the next 7 days of passes ≥ 10°. The values pass through the URL so the page stays shareable.

No JS? Fill the form by hand. The geolocation button needs JavaScript.